Location: Rimouski
(48.4330°N, 68.5170°W)
Time: 05:28:16
(UTC-05:00)

Envisat - Visible Passes

Search period start: 23 February 2019 00:00
Search period end: 05 March 2019 00:00
Orbit: 764 x 766 km, 98.2° (Epoch: 22 February)

Date Brightness Start Highest point End Pass type
(mag) Time Alt. Az. Time Alt. Az. Time Alt. Az.
23 Feb 6.2 05:46:56 10° NE 05:49:48 15° E 05:52:37 10° ESE visible
23 Feb 4.2 18:42:57 10° S 18:47:47 43° W 18:52:38 10° NNW visible
24 Feb 3.0 18:05:51 10° SSE 18:10:56 88° WSW 18:16:03 10° NNW visible
24 Feb 6.1 19:48:24 10° WSW 19:50:42 13° W 19:53:00 10° WNW visible
25 Feb 5.2 19:09:15 10° SSW 19:13:30 27° W 19:17:47 10° NW visible
26 Feb 6.5 05:36:35 10° ENE 05:38:25 12° E 05:40:14 10° ESE visible
26 Feb 3.8 18:31:33 10° S 18:36:31 54° W 18:41:31 10° NNW visible
27 Feb 3.0 17:54:40 10° SSE 17:59:44 76° ENE 18:04:49 10° N visible
27 Feb 5.9 19:36:13 10° SW 19:39:20 16° W 19:42:29 10° NW visible
28 Feb 4.8 18:57:39 10° SSW 19:02:12 32° W 19:06:46 10° NNW visible
01 Mar 3.4 18:20:13 10° S 18:25:16 67° WSW 18:30:22 10° NNW visible
02 Mar 3.0 17:43:33 10° SSE 17:48:33 62° ENE 17:53:34 10° N visible
02 Mar 5.6 19:24:18 10° SW 19:27:59 20° W 19:31:42 10° NW visible
03 Mar 4.4 18:46:10 10° SSW 18:50:55 40° W 18:55:43 10° NNW visible
04 Mar 3.1 18:08:58 10° SSE 18:14:02 82° WSW 18:19:10 10° NNW visible
04 Mar 6.1 19:52:03 10° WSW 19:53:53 12° W 19:55:43 10° WNW visible
